"2010-02-23 00:00:00",1705239,0.945,32.52,7.494,0.806,-7.317,97.13654,-7.991,-6.624,62.53,0,109.4,13.63,-7.27,354.5
"2010-02-23 00:00:30",1705240,1.491,45.58,6.651,1.064,-7.478,97.12688,-8.02,-6.75,62.78,0,109.4,13.63,-7.29,7.6
"2010-02-23 00:01:00",1705241,2.215,60.98,7.923,1.216,-5.337,97.10756,-8.07,-6.657,63.18,0,109.4,13.63,-7.34,23.0
"2010-02-23 00:01:30",1705242,2.318,51.38,5.635,1.101,-4.883,97.11025,-8.06,-6.627,63.43,0,109.4,13.63,-7.33,13.4
"2010-02-23 00:02:00",1705243,2.583,37.24,15.36,1.032,-4.46,97.11081,-8.06,-6.645,63.58,0,109.4,13.63,-7.33,359.2
"2010-02-23 00:02:30",1705244,2.323,12.08,8.23,1.188,-4.192,97.09834,-8.09,-6.678,63.66,0,109.3,13.64,-7.37,334.1
"2010-02-23 00:03:00",1705245,1.46,0.855,8.42,1.118,-6.182,97.08163,-8.13,-6.824,63.5,0,109.3,13.64,-7.41,322.9
"2010-02-23 00:03:30",1705246,1.332,350.5,6.585,0.874,-7.479,97.07681,-8.14,-6.815,63.85,0,109.3,13.64,-7.42,312.5
"2010-02-23 00:04:00",1705247,1.96,352.8,6.695,1.204,-6.164,97.07681,-8.14,-6.887,64.15,0,109.3,13.64,-7.42,314.8
"2010-02-23 00:04:30",1705248,1.413,348.7,5.755,1.04,-6.376,97.07681,-8.14,-6.755,64.65,0,109.3,13.65,-7.42,310.7
"2010-02-23 00:05:00",1705249,2.723,6.685,8.26,0.869,-2.8,97.07681,-8.14,-6.647,65.1,0,109.3,13.65,-7.42,328.7
"2010-02-23 00:05:30",1705250,1.542,6.604,13.99,1.209,-3.747,97.07681,-8.14,-6.726,65.31,0,109.3,13.65,-7.42,328.6
"2010-02-23 00:06:00",1705251,0.141,359.3,14.05,0.156,-7.47,97.07681,-8.14,-6.967,65.04,0,109.3,13.68,-7.42,321.3
"2010-02-23 00:06:30",1705252,0.389,354,7.882,0.133,-7.925,97.07681,-8.14,-6.967,65.12,0,109.3,13.68,-7.42,316.0
"2010-02-23 00:07:00",1705253,1.461,352.6,9.64,1.191,-6.317,97.07681,-8.14,-6.826,65.56,0,109.3,13.65,-7.42,314.6
"2010-02-23 00:07:30",1705254,0.598,338.1,4.183,0.225,-7.899,97.07681,-8.14,-6.852,65.75,0,109.3,13.69,-7.42,300.1
"2010-02-23 00:08:00",1705255,0.285,16.82,20.27,0.47,-7.853,97.07847,-8.14,-6.979,65.66,0,109.3,13.66,-7.42,338.8
"2010-02-23 00:08:30",1705256,2.164,42.78,10.05,1.196,-4.79,97.07791,-8.14,-6.695,63.75,0,109.3,13.66,-7.42,4.8
"2010-02-23 00:09:00",1705257,3.07,32.69,5.821,0.521,-3.591,97.08231,-8.13,-6.715,61.7,0,109.3,13.66,-7.41,354.7
"2010-02-23 00:09:30",1705258,2.007,37.1,10.57,1.183,-5.847,97.08507,-8.12,-6.856,61.39,0,109.3,13.66,-7.40,359.1
"2010-02-23 00:10:00",1705259,1.447,48.1,4.481,0.946,-7.723,97.08895,-8.11,-6.865,61.83,0,109.3,13.66,-7.39,10.1
"2010-02-23 00:10:30",1705260,1.917,47.54,12.68,1.157,-6.751,97.09621,-8.09,-6.891,62.71,0,109.3,13.66,-7.37,9.5
"2010-02-23 00:11:00",1705261,1.4,23.75,13.01,1.001,-6.241,97.11033,-8.06,-6.835,63.42,0,109.3,13.66,-7.33,345.8
"2010-02-23 00:11:30",1705262,1.301,19.35,10.66,1.154,-5.5,97.12446,-8.02,-6.797,63.46,0,109.3,13.66,-7.30,341.4
"2010-02-23 00:12:00",1705263,2.488,49.71,17.46,0.819,-3.569,97.12979,-8.01,-6.632,61.79,0,109.3,13.66,-7.28,11.7
"2010-02-23 00:12:30",1705264,1.745,64.83,8.9,1.148,-6.282,97.13172,-8,-6.816,61.24,0,109.3,13.66,-7.28,26.8
"2010-02-23 00:13:00",1705265,1.568,58.19,4.518,1.178,-7.238,97.13585,-7.993,-6.914,61.8,0,109.3,13.66,-7.27,20.2
"2010-02-23 00:13:30",1705266,1.369,51.42,4.571,0.955,-7.082,97.13529,-7.995,-6.764,62.56,0,109.3,13.66,-7.27,13.4
"2010-02-23 00:14:00",1705267,1.06,37.49,11.64,1.008,-7.315,97.1386,-7.986,-6.875,62.87,0,109.3,13.67,-7.26,359.5
"2010-02-23 00:14:30",1705268,1.241,20.91,10.07,1.047,-5.714,97.13863,-7.986,-6.749,63.15,0,109.3,13.66,-7.26,342.9
"2010-02-23 00:15:00",1705269,2.374,35.16,15.26,1.195,-4.201,97.14623,-7.967,-6.65,62.73,0,109.3,13.66,-7.24,357.2
"2010-02-23 00:15:30",1705270,2.429,56.25,5.032,1.08,-4.595,97.15617,-7.941,-6.61,62.58,0,109.3,13.65,-7.22,18.2
"2010-02-23 00:16:00",1705271,2.616,61.53,8.61,1.128,-5.189,97.16832,-7.911,-6.697,62.85,0,109.3,13.66,-7.19,23.5
"2010-02-23 00:16:30",1705272,1.459,53.82,6.32,0.837,-7.469,97.17425,-7.895,-6.737,63.25,0,109.3,13.65,-7.17,15.8
"2010-02-23 00:17:00",1705273,2.089,54.23,6.087,1.23,-6.137,97.17535,-7.893,-6.804,63.54,0,109.3,13.66,-7.17,16.2
"2010-02-23 00:17:30",1705274,1.779,58.1,6.245,1.158,-5.912,97.17618,-7.891,-6.734,63.92,0,109.3,13.66,-7.17,20.1
"2010-02-23 00:18:00",1705275,2.461,56.32,6.193,1.152,-3.932,97.17728,-7.888,-6.59,64.22,0,109.3,13.66,-7.16,18.3
"2010-02-23 00:18:30",1705276,2.549,54.72,6.422,1.141,-4.097,97.17783,-7.886,-6.573,64.3,0,109.3,13.66,-7.16,16.7
"2010-02-23 00:19:00",1705277,2.204,44.91,7.018,1.131,-5.336,97.17783,-7.886,-6.67,63.87,0,109.3,13.67,-7.16,6.9
"2010-02-23 00:19:30",1705278,1.453,50.53,7.847,0.851,-7.171,97.17783,-7.886,-6.65,63.35,0,109.3,13.67,-7.16,12.5
"2010-02-23 00:20:00",1705279,1.852,46.99,8.16,1.239,-6.239,97.17783,-7.886,-6.76,63.46,0,109.3,13.67,-7.16,9.0
"2010-02-23 00:20:30",1705280,2.428,56.87,6.164,1.142,-4.057,97.17783,-7.886,-6.57,63.84,0,109.3,13.67,-7.16,18.9
"2010-02-23 00:21:00",1705281,1.974,49.17,9.29,1.168,-4.87,97.17783,-7.886,-6.592,63.91,0,109.3,13.67,-7.16,11.2
"2010-02-23 00:21:30",1705282,1.703,39.25,4.779,1.037,-5.336,97.17783,-7.886,-6.586,63.96,0,109.3,13.67,-7.16,1.2
"2010-02-23 00:22:00",1705283,1.332,39.69,4.586,0.8,-7.051,97.17783,-7.886,-6.616,63.99,0,109.3,13.67,-7.16,1.7
"2010-02-23 00:22:30",1705284,2.331,40.16,9.8,1.144,-4.66,97.17783,-7.886,-6.594,64.03,0,109.3,13.67,-7.16,2.2
"2010-02-23 00:23:00",1705285,1.107,21.89,12.35,1.085,-6.03,97.17783,-7.886,-6.593,63.93,0,109.3,13.67,-7.16,343.9
"2010-02-23 00:23:30",1705286,1.046,5.17,14.23,1.035,-5.802,97.17783,-7.886,-6.685,62.95,0,109.3,13.67,-7.16,327.2
"2010-02-23 00:24:00",1705287,1.68,10.35,11.56,1.117,-4.694,97.17783,-7.886,-6.637,61.8,0,109.3,13.67,-7.16,332.4
"2010-02-23 00:24:30",1705288,2.091,355.7,13.58,1.068,-4.795,97.17783,-7.886,-6.65,60.78,0,109.3,13.68,-7.16,317.7
"2010-02-23 00:25:00",1705289,1.195,343.5,7.784,0.737,-6.807,97.17811,-7.886,-6.659,61.16,0,109.3,13.68,-7.16,305.5
"2010-02-23 00:25:30",1705290,1.892,2.173,13.42,1.087,-5.885,97.17811,-7.886,-6.734,61.88,0,109.3,13.68,-7.16,324.2
"2010-02-23 00:26:00",1705291,2.257,10.21,6.011,1.091,-4.224,97.18113,-7.878,-6.531,62.66,0,109.2,13.68,-7.15,332.2
"2010-02-23 00:26:30",1705292,3.146,6.653,6.143,0.696,-3.106,97.18361,-7.872,-6.58,62.99,0,109.3,13.68,-7.15,328.7
"2010-02-23 00:27:00",1705293,2.642,348.6,5.876,1.23,-4.308,97.18323,-7.873,-6.613,63.23,0,109.3,13.68,-7.15,310.6
"2010-02-23 00:27:30",1705294,2.022,5.785,20,0.972,-4.167,97.17091,-7.904,-6.629,63.04,0,109.3,13.68,-7.18,327.8
"2010-02-23 00:28:00",1705295,0.89,355.5,6.868,0.242,-6.756,97.16511,-7.919,-6.693,62.63,0,109.3,13.71,-7.19,317.5
"2010-02-23 00:28:30",1705296,1.259,344,7.272,0.138,-7.469,97.16696,-7.914,-6.799,62.95,0,109.3,13.72,-7.19,306.0
"2010-02-23 00:29:00",1705297,2.782,345.2,7.496,1.216,-4.599,97.17026,-7.906,-6.569,63.55,0,109.3,13.68,-7.18,307.2
"2010-02-23 00:29:30",1705298,3.333,346.6,4.751,0.965,-3.315,97.16943,-7.908,-6.543,63.73,0,109.3,13.68,-7.18,308.6
"2010-02-23 00:30:00",1705299,3.701,345,4.656,0.62,-2.826,97.16998,-7.906,-6.54,63.83,0,109.3,13.68,-7.18,307.0
"2010-02-23 00:30:30",1705300,2.595,332.9,8.61,1.138,-4.689,97.17185,-7.902,-6.618,63.8,0,109.3,13.68,-7.18,294.9
"2010-02-23 00:31:00",1705301,1.645,323.3,6.72,0.963,-6.031,97.15506,-7.944,-6.653,63.56,0,109.3,13.68,-7.22,285.3
"2010-02-23 00:31:30",1705302,1.832,325.4,6.209,1.104,-6.365,97.14342,-7.974,-6.846,62.74,0,109.3,13.68,-7.25,287.4
"2010-02-23 00:32:00",1705303,2.362,329.4,7.182,1.208,-4.85,97.14231,-7.977,-6.69,62.3,0,109.3,13.68,-7.25,291.4
"2010-02-23 00:32:30",1705304,3.067,335.6,5.365,0.82,-3.239,97.14285,-7.975,-6.631,61.91,0,109.3,13.68,-7.25,297.6
"2010-02-23 00:33:00",1705305,3.193,339.9,4.378,0.656,-2.75,97.14285,-7.975,-6.675,61.61,0,109.3,13.68,-7.25,301.9
"2010-02-23 00:33:30",1705306,2.057,343.3,8.67,1.154,-4.269,97.14172,-7.978,-6.681,61.42,0,109.3,13.69,-7.25,305.3
"2010-02-23 00:34:00",1705307,0.803,356.2,13.76,0.186,-6.538,97.13378,-7.998,-6.774,61.27,0,109.3,13.71,-7.27,318.2
"2010-02-23 00:34:30",1705308,0.78,346.9,7.004,0.583,-6.604,97.11564,-8.04,-6.791,61.25,0,109.2,13.69,-7.32,308.9
"2010-02-23 00:35:00",1705309,1.812,350.4,7.299,1.085,-5.302,97.10912,-8.06,-6.859,61.48,0,109.3,13.69,-7.34,312.4
"2010-02-23 00:35:30",1705310,2.168,355,7.446,1.152,-3.923,97.10884,-8.06,-6.687,61.98,0,109.3,13.69,-7.34,317.0
"2010-02-23 00:36:00",1705311,2.666,22.89,16.89,1.12,-3.877,97.10884,-8.06,-6.698,62.21,0,109.3,13.7,-7.34,344.9
"2010-02-23 00:36:30",1705312,2.448,25.39,12.36,1.126,-3.395,97.09921,-8.09,-6.704,62.21,0,109.3,13.7,-7.36,347.4
"2010-02-23 00:37:00",1705313,1.771,4.962,15,1.114,-4.547,97.07766,-8.14,-6.917,61.97,0,109.3,13.7,-7.42,327.0
"2010-02-23 00:37:30",1705314,1.604,356.7,9.72,0.845,-6.037,97.07483,-8.15,-6.979,62.03,0,109.3,13.7,-7.43,318.7
"2010-02-23 00:38:00",1705315,2.029,2.917,11.76,1.108,-5.045,97.07426,-8.15,-6.847,62.4,0,109.3,13.7,-7.43,324.9
"2010-02-23 00:38:30",1705316,2.171,348.6,5.923,1.166,-5.243,97.05271,-8.2,-6.795,62.8,0,109.3,13.7,-7.48,310.6
"2010-02-23 00:39:00",1705317,3.485,1.566,9.77,1.12,-3.301,97.04191,-8.23,-6.797,63.04,0,109.3,13.71,-7.51,323.6
"2010-02-23 00:39:30",1705318,4.114,355,8.87,0.66,-2.627,97.04079,-8.23,-6.747,63.44,0,109.2,13.71,-7.51,317.0
"2010-02-23 00:40:00",1705319,2.331,336.7,9.21,1.179,-4.326,97.02001,-8.29,-6.811,63.74,0,109.2,13.71,-7.57,298.7
"2010-02-23 00:40:30",1705320,2.639,356,14.18,1.15,-4.101,97.01065,-8.31,-6.975,63.69,0,109.2,13.71,-7.59,318.0
"2010-02-23 00:41:00",1705321,1.513,351.4,7.462,1.134,-5.588,97.01476,-8.3,-6.977,63.69,0,109.2,13.71,-7.58,313.4
"2010-02-23 00:41:30",1705322,2.006,337.5,7.725,1.112,-6.013,97.00259,-8.33,-7.01,63.76,0,109.2,13.71,-7.61,299.5
"2010-02-23 00:42:00",1705323,3.005,344.8,5.129,1.018,-4.153,96.99698,-8.35,-6.937,63.91,0,109.2,13.71,-7.62,306.8
"2010-02-23 00:42:30",1705324,3.301,342,5.641,0.633,-2.823,96.99753,-8.34,-6.886,63.82,0,109.2,13.71,-7.62,304.0
"2010-02-23 00:43:00",1705325,2.698,338.1,7.171,1.12,-4.599,96.98106,-8.39,-7.05,63.53,0,109.2,13.71,-7.66,300.1
"2010-02-23 00:43:30",1705326,2.887,340.8,6.252,1.151,-4.142,96.96406,-8.43,-7.011,63.68,0,109.2,13.71,-7.71,302.8
"2010-02-23 00:44:00",1705327,1.68,328.9,6.585,0.936,-6.843,96.96818,-8.42,-7.245,63.61,0,109.2,13.71,-7.70,290.9
"2010-02-23 00:44:30",1705328,2.259,335.2,6.91,1.157,-5.462,96.96896,-8.42,-7.145,63.8,0,109.2,13.72,-7.70,297.2
"2010-02-23 00:45:00",1705329,2.692,343.4,5.691,1.157,-4.169,96.94709,-8.47,-7.083,63.77,0,109.2,13.72,-7.75,305.4
"2010-02-23 00:45:30",1705330,3.124,346.3,5.161,0.966,-3.082,96.93774,-8.5,-7.015,63.83,0,109.2,13.72,-7.77,308.3
"2010-02-23 00:46:00",1705331,3.043,353.9,8.55,0.982,-3.044,96.93774,-8.5,-7.103,63.9,0,109.2,13.73,-7.77,315.9
"2010-02-23 00:46:30",1705332,2.787,356.4,6.677,1.135,-3.525,96.92384,-8.53,-7.205,63.96,0,109.2,13.72,-7.81,318.4
"2010-02-23 00:47:00",1705333,1.025,349.5,3.828,0.169,-6.67,96.9037,-8.58,-7.318,64.11,0,109.2,13.75,-7.86,311.5
"2010-02-23 00:47:30",1705334,1.781,353.5,7.601,1.064,-5.336,96.9037,-8.58,-7.265,64.39,0,109.2,13.73,-7.86,315.5
"2010-02-23 00:48:00",1705335,1.83,359.5,9.3,1.152,-5.232,96.90002,-8.59,-7.281,64.51,0,109.2,13.73,-7.87,321.5
"2010-02-23 00:48:30",1705336,3.099,348.9,7.004,0.957,-4.067,96.87307,-8.66,-7.252,64.79,0,109.2,13.73,-7.94,310.9
"2010-02-23 00:49:00",1705337,3.382,355,6.514,0.636,-2.473,96.8716,-8.67,-7.227,65,0,109.2,13.73,-7.94,317.0
"2010-02-23 00:49:30",1705338,2.671,340.5,5.868,1.185,-4.558,96.87048,-8.67,-7.297,65.07,0,109.2,13.73,-7.95,302.5
"2010-02-23 00:50:00",1705339,2.009,346.6,6.11,1.148,-4.978,96.84724,-8.73,-7.313,65.18,0,109.2,13.73,-8.01,308.6
"2010-02-23 00:50:30",1705340,2.062,341.9,7.291,1.185,-5.756,96.83757,-8.75,-7.474,65.11,0,109.2,13.73,-8.03,303.9
"2010-02-23 00:51:00",1705341,2.728,353.4,10.45,1.134,-4.092,96.84115,-8.74,-7.325,65.38,0,109.2,13.73,-8.02,315.4
"2010-02-23 00:51:30",1705342,2.891,348.7,6.068,1.14,-4.514,96.83779,-8.75,-7.418,65.45,0,109.2,13.73,-8.03,310.7
"2010-02-23 00:52:00",1705343,3.108,353.5,4.141,1.036,-2.973,96.82982,-8.77,-7.266,65.67,0,109.2,13.74,-8.05,315.5
"2010-02-23 00:52:30",1705344,3.3,351.8,5.558,1.001,-3.381,96.82689,-8.78,-7.389,65.7,0,109.2,13.74,-8.06,313.8
"2010-02-23 00:53:00",1705345,2.298,342.8,4.962,1.172,-5.364,96.82632,-8.78,-7.539,65.71,0,109.2,13.74,-8.06,304.8
"2010-02-23 00:53:30",1705346,2.228,346.9,6.751,1.161,-5.409,96.80694,-8.83,-7.52,65.89,0,109.2,13.74,-8.11,308.9
"2010-02-23 00:54:00",1705347,1.398,338.5,5.441,0.606,-6.869,96.79834,-8.85,-7.543,66.01,0,109.2,13.74,-8.13,300.5
"2010-02-23 00:54:30",1705348,2.469,340.8,7.604,1.246,-4.695,96.80027,-8.85,-7.457,66.29,0,109.1,13.75,-8.13,302.8
"2010-02-23 00:55:00",1705349,3.309,348.6,4.132,0.906,-2.985,96.79489,-8.86,-7.391,66.51,0,109.1,13.75,-8.14,310.6
"2010-02-23 00:55:30",1705350,3.261,347.3,6.167,1.083,-3.468,96.77359,-8.91,-7.494,66.53,0,109.1,13.75,-8.19,309.3
"2010-02-23 00:56:00",1705351,2.791,340.2,9.48,1.021,-4.18,96.7665,-8.93,-7.607,66.42,0,109.1,13.75,-8.21,302.2
"2010-02-23 00:56:30",1705352,1.994,344.5,10.54,1.195,-5.485,96.76595,-8.93,-7.627,65.61,0,109.1,13.75,-8.21,306.5
"2010-02-23 00:57:00",1705353,1.627,346.9,4.703,0.733,-6.752,96.75488,-8.96,-7.786,64.7,0,109.1,13.75,-8.24,308.9
"2010-02-23 00:57:30",1705354,2.804,356.3,6.122,1.294,-3.739,96.73502,-9.01,-7.541,64.77,0,109.1,13.75,-8.29,318.3
"2010-02-23 00:58:00",1705355,3.129,355.3,7.562,1.033,-2.995,96.73246,-9.02,-7.595,64.94,0,109.1,13.75,-8.30,317.3
"2010-02-23 00:58:30",1705356,2.556,357.7,7.797,0.903,-2.907,96.73246,-9.02,-7.559,65.21,0,109.1,13.75,-8.30,319.7
"2010-02-23 00:59:00",1705357,2.46,354.8,12.33,1.107,-3.854,96.73133,-9.02,-7.765,65.27,0,109.1,13.76,-8.30,316.8
"2010-02-23 00:59:30",1705358,2.034,349.7,7.445,1.264,-5.198,96.71545,-9.06,-7.768,65.65,0,109.1,13.76,-8.34,311.7
"2010-02-23 01:00:00",1705359,1.259,347.6,3.433,0.13,-7.348,96.69927,-9.1,-7.883,65.83,0,109.1,13.79,-8.38,309.6
"2010-02-23 01:00:30",1705360,2.468,348.8,6.041,1.18,-5.136,96.69843,-9.11,-7.706,66.46,0,109.1,13.77,-8.39,310.8
"2010-02-23 01:01:00",1705361,3.689,359.6,6.868,0.494,-2.106,96.69814,-9.11,-7.622,66.88,0,109.1,13.77,-8.39,321.6
"2010-02-23 01:01:30",1705362,3.864,358.4,3.912,0.791,-2.333,96.67603,-9.16,-7.659,67.2,0,109.1,13.77,-8.44,320.4
"2010-02-23 01:02:00",1705363,3.44,350.4,7.901,1.066,-3.491,96.6644,-9.19,-7.662,67.48,0,109.1,13.77,-8.47,312.4
"2010-02-23 01:02:30",1705364,3.085,351.8,5.41,1.168,-5.305,96.66686,-9.19,-7.902,67.47,0,109.1,13.77,-8.47,313.8
"2010-02-23 01:03:00",1705365,2.295,348,4.931,0.711,-6.271,96.6665,-9.19,-7.812,67.8,0,109.1,13.77,-8.47,310.0
"2010-02-23 01:03:30",1705366,3.526,359.2,9.68,1.087,-3.051,96.64456,-9.24,-7.735,68.15,0,109.1,13.76,-8.52,321.2
"2010-02-23 01:04:00",1705367,4.105,350.7,4.108,0.765,-2.309,96.63913,-9.26,-7.747,68.34,0,109.1,13.76,-8.54,312.7
"2010-02-23 01:04:30",1705368,3.845,356.1,6.424,0.546,-2.149,96.64352,-9.25,-7.76,68.5,0,109.1,13.76,-8.53,318.1
"2010-02-23 01:05:00",1705369,2.98,354.5,6.669,1.142,-3.526,96.64622,-9.24,-7.878,68.49,0,109.1,13.76,-8.52,316.5
"2010-02-23 01:05:30",1705370,2.134,350.4,10.11,1.045,-5.217,96.63364,-9.27,-7.975,68.34,0,109.1,13.76,-8.55,312.4
"2010-02-23 01:06:00",1705371,1.535,348.3,3.394,0.415,-6.971,96.62465,-9.29,-8.09,68.24,0,109.1,13.77,-8.57,310.3
"2010-02-23 01:06:30",1705372,3.09,352.4,5.812,1.142,-4.623,96.62537,-9.29,-7.917,68.63,0,109.1,13.77,-8.57,314.4
"2010-02-23 01:07:00",1705373,3.675,353.6,5.755,0.937,-3.223,96.62756,-9.29,-7.851,68.93,0,109.1,13.77,-8.57,315.6
"2010-02-23 01:07:30",1705374,4.185,344,4.582,0.857,-2.526,96.62893,-9.28,-7.837,69.14,0,109.1,13.77,-8.56,306.0
"2010-02-23 01:08:00",1705375,4.171,5.666,8.63,0.812,-1.818,96.62835,-9.28,-7.864,69.28,0,109.1,13.77,-8.56,327.7
"2010-02-23 01:08:30",1705376,4.046,339.4,11.83,0.926,-3.728,96.60821,-9.33,-8.01,69.25,0,109.1,13.77,-8.62,301.4
"2010-02-23 01:09:00",1705377,3.434,323.5,5.232,1.158,-5.779,96.59686,-9.36,-8.09,69.21,0,109.1,13.77,-8.64,285.5
"2010-02-23 01:09:30",1705378,3.39,328.6,6.979,1.067,-4.838,96.59516,-9.37,-8.03,69.13,0,109.1,13.78,-8.65,290.6
"2010-02-23 01:10:00",1705379,3.829,325.7,4.66,1.073,-3.206,96.59516,-9.37,-7.908,69.04,0,109,13.78,-8.65,287.7
"2010-02-23 01:10:30",1705380,4.435,330,5.719,0.723,-1.875,96.59516,-9.37,-7.913,68.79,0,109,13.78,-8.65,292.0
"2010-02-23 01:11:00",1705381,3.791,336.2,6.369,0.942,-2.752,96.59516,-9.37,-8.02,68.01,0,109,13.78,-8.65,298.2
"2010-02-23 01:11:30",1705382,3.271,326.7,7.283,1.225,-4.172,96.59516,-9.37,-8.04,66.89,0,109,13.78,-8.65,288.7
"2010-02-23 01:12:00",1705383,3.129,320.1,4.587,1,-5.305,96.59516,-9.37,-8.22,65.53,0,109,13.78,-8.65,282.1
"2010-02-23 01:12:30",1705384,3.921,327.8,6.066,0.989,-3.531,96.59516,-9.37,-8.02,64.95,0,109,13.78,-8.65,289.8
"2010-02-23 01:13:00",1705385,3.745,333.2,5.593,1.107,-3.544,96.59516,-9.37,-8.01,64.89,0,109,13.78,-8.65,295.2
"2010-02-23 01:13:30",1705386,4.065,336.4,7.036,0.89,-2.236,96.59516,-9.37,-7.99,65.12,0,109.1,13.78,-8.65,298.4
"2010-02-23 01:14:00",1705387,3.769,323.6,5.422,0.994,-3.016,96.5957,-9.37,-8.03,65.26,0,109,13.79,-8.65,285.6
"2010-02-23 01:14:30",1705388,3.159,318,6.267,1.129,-4.581,96.59516,-9.37,-8.09,64.68,0,109,13.79,-8.65,280.0
"2010-02-23 01:15:00",1705389,3.519,320.8,5.225,1.045,-3.906,96.59872,-9.36,-8.06,63.54,0,109,13.79,-8.64,282.8
"2010-02-23 01:15:30",1705390,3.521,318.7,6.961,1.109,-4.099,96.60009,-9.36,-8.03,63.04,0,109,13.79,-8.64,280.7
"2010-02-23 01:16:00",1705391,4.069,333.9,5.006,0.888,-2.547,96.60256,-9.35,-8.01,63.15,0,109,13.79,-8.63,295.9
"2010-02-23 01:16:30",1705392,3.924,325.5,6.91,0.951,-2.918,96.6064,-9.34,-8.01,63.64,0,109,13.79,-8.62,287.5
"2010-02-23 01:17:00",1705393,3.736,323,5.15,1.036,-3.233,96.60914,-9.33,-7.993,64.06,0,109,13.79,-8.61,285.0
"2010-02-23 01:17:30",1705394,2.71,319,5.557,1.102,-4.963,96.61545,-9.32,-8.05,64.28,0,109,13.79,-8.60,281.0
"2010-02-23 01:18:00",1705395,3.438,323.1,6.282,1.126,-3.801,96.61874,-9.31,-7.999,64.54,0,109,13.79,-8.59,285.1
"2010-02-23 01:18:30",1705396,3.643,320.5,7.028,0.968,-3.465,96.62011,-9.3,-7.989,64.7,0,109,13.8,-8.59,282.5
"2010-02-23 01:19:00",1705397,3.786,320.4,6.063,0.975,-3.389,96.6223,-9.3,-8.02,64.74,0,109,13.8,-8.58,282.4
"2010-02-23 01:19:30",1705398,3.442,321.9,8.12,1.152,-3.438,96.6245,-9.29,-7.997,64.67,0,108.9,13.79,-8.57,283.9
"2010-02-23 01:20:00",1705399,3.873,331.3,5.171,0.999,-2.959,96.62614,-9.29,-7.981,64.63,0,109,13.79,-8.57,293.3
"2010-02-23 01:20:30",1705400,3.786,335.1,8.66,1.048,-3.151,96.62642,-9.29,-7.991,64.9,0,109,13.79,-8.57,297.1
"2010-02-23 01:21:00",1705401,3.673,336.6,5.75,1.074,-3.531,96.62724,-9.29,-8.01,65.28,0,109,13.79,-8.57,298.6
"2010-02-23 01:21:30",1705402,3.773,326.2,6.865,1.238,-3.979,96.62806,-9.28,-8.02,65.67,0,109,13.79,-8.57,288.2
"2010-02-23 01:22:00",1705403,3.309,343.7,9.54,1.159,-3.83,96.62806,-9.28,-7.963,66,0,109,13.79,-8.57,305.7
"2010-02-23 01:22:30",1705404,3.464,344.4,10.48,1.158,-2.974,96.62806,-9.28,-7.974,66.37,0,109,13.79,-8.57,306.4
"2010-02-23 01:23:00",1705405,3.639,345.3,9.29,0.943,-2.933,96.62806,-9.28,-7.956,66.86,0,109,13.79,-8.57,307.3
"2010-02-23 01:23:30",1705406,3.437,327.1,9.39,1.049,-3.918,96.62806,-9.28,-8.02,67.1,0,109,13.79,-8.57,289.1
"2010-02-23 01:24:00",1705407,4.16,343.8,10.39,1.228,-3.585,96.62806,-9.28,-7.955,67,0,109,13.79,-8.57,305.8
"2010-02-23 01:24:30",1705408,4.191,335.4,8.38,1.081,-3.417,96.62806,-9.28,-7.976,66.45,0,109,13.8,-8.57,297.4
"2010-02-23 01:25:00",1705409,4.545,344,7.095,0.994,-2.852,96.62806,-9.28,-7.984,66.71,0,109,13.8,-8.57,306.0
"2010-02-23 01:25:30",1705410,3.76,346.3,8.76,1.154,-3.395,96.62806,-9.28,-7.976,67.13,0,109,13.8,-8.57,308.3
"2010-02-23 01:26:00",1705411,3.554,353.8,11.37,1.094,-2.406,96.62806,-9.28,-7.877,67.62,0,109,13.8,-8.57,315.8
"2010-02-23 01:26:30",1705412,3.412,326.3,7.598,1.049,-3.887,96.62806,-9.28,-8.02,67.81,0,109,13.8,-8.57,288.3
"2010-02-23 01:27:00",1705413,3.556,332.6,8.64,1.186,-4.446,96.62806,-9.28,-7.942,68.05,0,109,13.8,-8.57,294.6
"2010-02-23 01:27:30",1705414,3.603,335.1,6.128,1.252,-4.177,96.62806,-9.28,-8.05,67.88,0,109,13.8,-8.57,297.1
"2010-02-23 01:28:00",1705415,3.836,339.3,6.364,1.04,-3.151,96.62806,-9.28,-7.942,67.92,0,109,13.81,-8.57,301.3
"2010-02-23 01:28:30",1705416,3.608,343.4,7.825,1.03,-2.727,96.62806,-9.28,-7.948,68.08,0,109,13.81,-8.57,305.4
"2010-02-23 01:29:00",1705417,3.196,345.5,7.677,1.163,-3.682,96.62806,-9.28,-7.99,68.12,0,109,13.81,-8.57,307.5
"2010-02-23 01:29:30",1705418,3.02,348.2,6.847,1.11,-3.79,96.62806,-9.28,-7.993,68.25,0,109,13.81,-8.57,310.2
"2010-02-23 01:30:00",1705419,2.144,353.1,9.13,0.966,-5.062,96.62806,-9.28,-7.965,68.51,0,109,13.81,-8.57,315.1
"2010-02-23 01:30:30",1705420,3.532,342.9,5.696,0.98,-3.737,96.62806,-9.28,-7.982,68.69,0,109,13.81,-8.57,304.9
"2010-02-23 01:31:00",1705421,3.598,346.8,7.273,1.053,-3.561,96.62806,-9.28,-7.983,68.77,0,109,13.81,-8.57,308.8
"2010-02-23 01:31:30",1705422,3.709,355.3,4.055,1.04,-2.689,96.62806,-9.28,-7.885,68.92,0,109,13.81,-8.57,317.3
"2010-02-23 01:32:00",1705423,3.916,353.8,5.568,1.086,-3.252,96.62806,-9.28,-7.93,69.09,0,109,13.81,-8.57,315.8
"2010-02-23 01:32:30",1705424,3.344,337.8,6.57,1.091,-3.942,96.62806,-9.28,-7.932,69.27,0,109,13.81,-8.57,299.8
"2010-02-23 01:33:00",1705425,3.213,340.7,8.45,1.119,-4.337,96.62806,-9.28,-8.01,69.3,0,109,13.81,-8.57,302.7
"2010-02-23 01:33:30",1705426,3.482,344.8,6.998,0.999,-4.088,96.62806,-9.28,-7.972,69.36,0,109,13.81,-8.57,306.8
"2010-02-23 01:34:00",1705427,3.53,345.2,7.456,1.089,-3.793,96.62721,-9.29,-7.988,69.28,0,109,13.81,-8.57,307.2
"2010-02-23 01:34:30",1705428,3.052,347.4,7.21,1.109,-3.346,96.62434,-9.29,-7.899,69.46,0,109,13.81,-8.57,309.4
"2010-02-23 01:35:00",1705429,3.455,350.9,5.423,1.033,-3.253,96.62228,-9.3,-7.99,69.49,0,109,13.81,-8.58,312.9
"2010-02-23 01:35:30",1705430,3.272,349.5,5.519,1.214,-4.475,96.61589,-9.32,-8,69.62,0,109,13.82,-8.60,311.5
"2010-02-23 01:36:00",1705431,2.827,344.1,6.731,1.164,-4.848,96.61436,-9.32,-7.932,69.83,0,109,13.82,-8.60,306.1
"2010-02-23 01:36:30",1705432,3.828,343.7,7.372,1.067,-3.505,96.6162,-9.31,-7.996,69.86,0,109,13.82,-8.60,305.7
"2010-02-23 01:37:00",1705433,4.072,352.2,6.145,0.956,-2.859,96.61693,-9.31,-7.917,70.06,0,109,13.82,-8.59,314.2
"2010-02-23 01:37:30",1705434,3.674,0.68,7.409,0.879,-2.447,96.61654,-9.31,-7.926,70.17,0,109,13.82,-8.59,322.7
"2010-02-23 01:38:00",1705435,2.807,353.8,11.42,1.082,-4.577,96.61842,-9.31,-7.99,70.28,0,109,13.82,-8.59,315.8
"2010-02-23 01:38:30",1705436,2.64,344.9,6.509,0.961,-5.853,96.61758,-9.31,-8.05,70.4,0,109,13.82,-8.59,306.9
"2010-02-23 01:39:00",1705437,3.923,350.6,9.73,1.032,-4.001,96.61868,-9.31,-7.933,70.63,0,109,13.82,-8.59,312.6
"2010-02-23 01:39:30",1705438,3.709,356.7,8.04,1.182,-4.103,96.61841,-9.31,-8.02,70.69,0,109,13.82,-8.59,318.7
"2010-02-23 01:40:00",1705439,4.574,354.8,4.268,0.735,-2.323,96.61868,-9.31,-7.891,70.95,0,109,13.82,-8.59,316.8
"2010-02-23 01:40:30",1705440,4.151,352.7,8.75,0.986,-3.074,96.61868,-9.31,-7.95,71.04,0,109,13.82,-8.59,314.7
"2010-02-23 01:41:00",1705441,3.363,2.505,7.608,0.971,-3.202,96.61868,-9.31,-7.975,71.04,0,109,13.82,-8.59,324.5
"2010-02-23 01:41:30",1705442,3.232,0.34,15.12,1.274,-4.687,96.61895,-9.31,-8.04,71.11,0,109,13.82,-8.59,322.3
"2010-02-23 01:42:00",1705443,3.291,359.6,11.32,1.078,-4.555,96.61329,-9.32,-7.981,71.26,0,109,13.82,-8.60,321.6
"2010-02-23 01:42:30",1705444,3.815,342.2,8.87,1.003,-3.83,96.60392,-9.35,-8.06,71.24,0,109,13.83,-8.63,304.2
"2010-02-23 01:43:00",1705445,2.886,350,17.1,1.207,-3.492,96.60107,-9.35,-7.953,71.13,0,109,13.83,-8.63,312.0
"2010-02-23 01:43:30",1705446,2.873,9.83,16.5,1.176,-3.439,96.60163,-9.35,-8,70.46,0,109,13.83,-8.63,331.8
"2010-02-23 01:44:00",1705447,2.861,356.9,9.88,1.241,-3.697,96.601,-9.35,-7.987,70.43,0,109,13.83,-8.63,318.9
"2010-02-23 01:44:30",1705448,2.495,5.151,18.21,1.072,-5.319,96.59788,-9.36,-8.2,70.22,0,109,13.83,-8.64,327.2
"2010-02-23 01:45:00",1705449,3.979,24.82,11.32,1.187,-4.459,96.59614,-9.37,-8.04,70.47,0,109,13.83,-8.65,346.8
"2010-02-23 01:45:30",1705450,4.036,19.36,14.47,1.268,-3.695,96.59559,-9.37,-7.937,70.61,0,109,13.83,-8.65,341.4